Date String (YYYY-MM-DD hh:mm:ss) UTC,Instrument flags,absolute air pressure of the measurement (hPa),sample flow rate (lpm),inlet stack bypass flow (lpm),air temperature of the measurement (°C),ambient temperature measured by the external sensor (°C),aerosol sample conditioner tube jacket temperature (°C),OPC LED temperature (°C),internal box temperature (°C),relative humidity of the measurement (%),span deviation,mass concentration of particles derived from Lorenz-Mie calculation of OPC scattering (μg/m³),mass concentration of particles derived from Lorenz-Mie calculation of OPC scattering (μg/m³),mass concentration of particles derived from Lorenz-Mie calculation of OPC scattering (μg/m³)
DateTimeUTC,F1_M11,P_M11,Q1_M11,Q2_M11,T1_M11,T2_M11,T3_M11,T4_M11,T5_M11,U1_M11,ZSPAN_M11,X0_M11,X2_M11,X1_M11
2023-09-07 15:00:00,SystemResetWarning,0832.5,4.99,000.00,028.3,026.3,000.0,036.7,029.8,13.4,0000.0,0006.03,0001.71,0000.89
2023-09-07 15:01:00,SystemResetWarning,0832.5,5.00,000.00,028.3,026.5,000.0,036.7,029.8,13.5,0000.0,0005.43,0001.71,0000.90
2023-09-07 15:02:00,SystemResetWarning,0832.5,5.00,000.00,028.3,026.8,000.0,036.7,029.9,13.4,0000.0,0005.48,0001.69,0000.90
2023-09-07 15:03:00,SystemResetWarning,0832.5,5.00,000.00,028.4,026.9,000.0,036.7,029.9,13.4,0000.0,0005.56,0001.70,0000.91
2023-09-07 15:04:00,SystemResetWarning,0832.5,5.00,000.00,028.4,027.1,000.0,036.7,030.0,13.0,0000.0,0004.74,0001.65,0000.90
2023-09-07 15:05:00,SystemResetWarning,0832.5,5.00,000.00,028.4,027.2,000.0,036.8,030.0,12.9,0000.0,0003.76,0001.61,0000.90
2023-09-07 15:06:00,SystemResetWarning,0832.6,4.99,000.00,028.4,027.3,000.0,036.8,030.1,12.9,0000.0,0004.57,0001.62,0000.89
2023-09-07 15:07:00,SystemResetWarning,0832.5,4.99,000.00,028.5,027.4,000.0,036.8,030.1,13.0,0000.0,0005.19,0001.59,0000.90
2023-09-07 15:08:00,SystemResetWarning,0832.5,5.00,000.00,028.5,027.5,000.0,036.8,030.2,13.3,0000.0,0005.54,0001.56,0000.91
2023-09-07 15:09:00,SystemResetWarning,0832.5,5.01,000.00,028.5,027.3,000.0,036.8,030.2,13.3,0000.0,0005.76,0001.59,0000.91
2023-09-07 15:10:00,SystemResetWarning,0832.4,4.99,000.00,028.5,026.0,000.0,036.8,029.8,13.1,0000.0,0005.90,0001.57,0000.91
2023-09-07 15:11:00,SystemResetWarning,0832.4,5.01,000.00,028.4,025.0,000.0,036.7,029.5,13.2,0000.0,0005.87,0001.55,0000.91
2023-09-07 15:12:00,SystemResetWarning,0832.5,5.01,000.00,028.3,025.1,000.0,036.7,029.6,13.2,0000.0,0005.83,0001.47,0000.91
2023-09-07 15:13:00,SystemResetWarning,0832.4,5.00,000.00,028.3,025.4,000.0,036.7,029.5,13.5,0000.0,0005.74,0001.44,0000.91
2023-09-07 15:14:00,SystemResetWarning,0832.3,4.99,000.00,028.2,025.7,000.0,036.7,029.6,13.6,0000.0,0005.77,0001.44,0000.90
2023-09-07 15:15:00,SystemResetWarning,0832.4,5.00,000.00,028.2,026.0,000.0,036.7,029.7,13.3,0000.0,0005.71,0001.45,0000.89
2023-09-07 15:16:00,SystemResetWarning,0832.5,5.00,000.00,028.3,026.3,000.0,036.7,029.8,13.7,0000.0,0005.72,0001.45,0000.92
2023-09-07 15:17:00,SystemResetWarning,0832.5,5.00,000.00,028.3,026.5,000.0,036.7,029.8,13.5,0000.0,0005.34,0001.47,0000.94
2023-09-07 15:18:00,SystemResetWarning,0832.5,5.01,000.00,028.3,026.8,000.0,036.7,029.9,13.6,0000.0,0004.58,0001.48,0000.95
2023-09-07 15:19:00,SystemResetWarning,0832.5,5.00,000.00,028.4,026.9,000.0,036.7,030.0,13.7,0000.0,0003.63,0001.51,0000.96
2023-09-07 15:20:00,SystemResetWarning,0832.5,4.99,000.00,028.4,027.1,000.0,036.7,030.0,13.7,0000.0,0003.52,0001.50,0000.97
2023-09-07 15:21:00,SystemResetWarning,0832.5,5.00,000.00,028.4,027.2,000.0,036.7,030.1,14.7,0000.0,0003.63,0001.52,0000.98
2023-09-07 15:22:00,SystemResetWarning,0832.5,5.00,000.00,028.5,027.3,000.0,036.7,030.1,13.7,0000.0,0004.58,0001.55,0000.99
2023-09-07 15:23:00,SystemResetWarning,0832.5,5.00,000.00,028.5,027.4,000.0,036.8,030.2,13.1,0000.0,0004.56,0001.56,0000.98
2023-09-07 15:24:00,SystemResetWarning,0832.5,4.99,000.00,028.5,026.5,000.0,036.7,030.0,12.8,0000.0,0004.57,0001.60,0000.98
2023-09-07 15:25:00,SystemResetWarning,0832.4,5.01,000.00,028.4,025.1,000.0,036.7,029.5,13.0,0000.0,0004.45,0001.58,0000.99
2023-09-07 15:26:00,SystemResetWarning,0832.4,5.01,000.00,028.3,025.0,000.0,036.6,029.6,12.6,0000.0,0004.29,0001.56,0001.00
2023-09-07 15:27:00,SystemResetWarning,0832.5,4.99,000.00,028.3,025.3,000.0,036.6,029.5,12.6,0000.0,0004.20,0001.55,0000.99
2023-09-07 15:28:00,SystemResetWarning,0832.5,4.99,000.00,028.2,025.6,000.0,036.6,029.6,13.0,0000.0,0004.17,0001.54,0000.97
2023-09-07 15:29:00,SystemResetWarning,0832.5,5.00,000.00,028.2,025.9,000.0,036.6,029.7,12.9,0000.0,0004.18,0001.56,0000.97
2023-09-07 15:30:00,SystemResetWarning,0832.5,5.01,000.00,028.2,026.2,000.0,036.6,029.7,13.2,0000.0,0004.17,0001.55,0000.96
2023-09-07 15:31:00,SystemResetWarning,0832.5,5.00,000.00,028.3,026.5,000.0,036.6,029.8,13.2,0000.0,0004.46,0001.55,0000.95
2023-09-07 15:32:00,SystemResetWarning,0832.5,4.99,000.00,028.3,026.7,000.0,036.7,029.9,13.1,0000.0,0004.21,0001.52,0000.94
2023-09-07 15:33:00,SystemResetWarning,0832.5,5.00,000.00,028.3,026.9,000.0,036.7,029.9,13.4,0000.0,0003.04,0001.50,0000.95
2023-09-07 15:34:00,SystemResetWarning,0832.5,4.99,000.00,028.4,027.1,000.0,036.7,030.0,13.1,0000.0,0003.03,0001.53,0000.97
2023-09-07 15:35:00,SystemResetWarning,0832.5,4.99,000.00,028.4,027.2,000.0,036.7,030.0,13.0,0000.0,0003.20,0001.60,0000.98
2023-09-07 15:36:00,SystemResetWarning,0832.5,5.00,000.00,028.4,026.7,000.0,036.7,029.9,12.9,0000.0,0003.33,0001.63,0000.98
2023-09-07 15:37:00,SystemResetWarning,0832.5,5.01,000.00,028.3,025.2,000.0,036.6,029.5,13.0,0000.0,0003.71,0001.64,0000.98
2023-09-07 15:38:00,SystemResetWarning,0832.5,5.00,000.00,028.2,024.8,000.0,036.6,029.4,12.8,0000.0,0005.20,0001.65,0000.99
2023-09-07 15:39:00,SystemResetWarning,0832.5,5.02,000.00,028.2,025.0,000.0,036.5,029.4,12.9,0000.0,0005.96,0001.68,0001.00
2023-09-07 15:40:00,SystemResetWarning,0832.5,4.99,000.00,028.1,025.4,000.0,036.5,029.5,13.2,0000.0,0006.38,0001.70,0001.00
2023-09-07 15:41:00,SystemResetWarning,0832.5,5.01,000.00,028.1,025.7,000.0,036.5,029.5,12.9,0000.0,0007.60,0001.70,0001.00
2023-09-07 15:42:00,SystemResetWarning,0832.5,5.00,000.00,028.1,026.0,000.0,036.5,029.6,12.7,0000.0,0007.42,0001.68,0000.99
2023-09-07 15:43:00,SystemResetWarning,0832.5,5.01,000.00,028.2,026.3,000.0,036.5,029.7,12.7,0000.0,0007.38,0001.68,0000.98
2023-09-07 15:44:00,SystemResetWarning,0832.6,5.01,000.00,028.2,026.5,000.0,036.6,029.8,12.6,0000.0,0007.39,0001.68,0000.97
2023-09-07 15:45:00,SystemResetWarning,0832.6,4.99,000.00,028.2,026.8,000.0,036.6,029.8,13.4,0000.0,0007.44,0001.69,0000.97
2023-09-07 15:46:00,SystemResetWarning,0832.5,4.99,000.00,028.3,026.9,000.0,036.6,029.9,16.3,0000.0,0007.38,0001.62,0000.96
2023-09-07 15:47:00,SystemResetWarning,0832.6,4.99,000.00,028.3,027.1,000.0,036.6,030.0,15.1,0000.0,0007.31,0001.56,0000.94
2023-09-07 15:48:00,SystemResetWarning,0832.6,5.00,000.00,028.3,027.2,000.0,036.6,030.0,13.8,0000.0,0007.23,0001.54,0000.95
2023-09-07 15:49:00,SystemResetWarning,0832.6,5.00,000.00,028.3,026.4,000.0,036.6,029.8,12.7,0000.0,0005.70,0001.55,0000.96
2023-09-07 15:50:00,SystemResetWarning,0832.6,5.00,000.00,028.2,025.0,000.0,036.5,029.4,12.7,0000.0,0005.00,0001.51,0000.96
2023-09-07 15:51:00,SystemResetWarning,0832.7,5.00,000.00,028.1,024.9,000.0,036.5,029.4,13.5,0000.0,0004.98,0001.45,0000.96
2023-09-07 15:52:00,SystemResetWarning,0832.7,5.01,000.00,028.1,025.2,000.0,036.5,029.4,13.3,0000.0,0004.54,0001.48,0000.95
2023-09-07 15:53:00,SystemResetWarning,0832.6,5.00,000.00,028.1,025.5,000.0,036.5,029.4,14.4,0000.0,0004.81,0001.55,0000.96
2023-09-07 15:54:00,SystemResetWarning,0832.6,5.00,000.00,028.1,025.8,000.0,036.5,029.5,15.6,0000.0,0005.15,0001.61,0000.98
2023-09-07 15:55:00,SystemResetWarning,0832.7,5.00,000.00,028.1,026.2,000.0,036.5,029.6,18.1,0000.0,0005.47,0001.63,0001.00
2023-09-07 15:56:00,SystemResetWarning,0832.6,5.00,000.00,028.1,026.5,000.0,036.5,029.7,17.1,0000.0,0006.02,0001.62,0001.00
2023-09-07 15:57:00,SystemResetWarning,0832.7,4.99,000.00,028.2,026.7,000.0,036.5,029.8,15.1,0000.0,0006.10,0001.70,0001.06
2023-09-07 15:58:00,SystemResetWarning,0832.7,4.99,000.00,028.2,026.9,000.0,036.5,029.9,14.1,0000.0,0007.19,0001.79,0001.08
2023-09-07 15:59:00,SystemResetWarning,0832.7,5.00,000.00,028.3,027.1,000.0,036.6,029.9,13.9,0000.0,0007.39,0001.85,0001.08
